User: anonymous   Login
Location: Unnamed Road
(35.9029°N, 51.9749°E)
Time: 09:57:29
(UTC+04:30)
Language:

Vanguard 1 - Orbit

View from above orbital plane
View from above orbital plane
View from above satellite
View from above satellite

Ground track
Ground track

The orbit data is extracted from the following two-line orbital elements,

1     5U 58002B   20144.76170746 +.00000174 +00000-0 +19302-3 0  9999
2     5 034.2596 304.3715 1847756 241.1982 099.0858 10.84848451202572
Epoch (UTC): 23 May 2020 18:16:51
Eccentricity: 0.1847756
inclination: 34.2596°
perigee height: 649 km
apogee height: 3834 km
right ascension of ascending node: 304.3715°
argument of perigee: 241.1982°
revolutions per day: 10.84848451
mean anomaly at epoch: 99.0858°
orbit number at epoch: 20257

The dashed part of the orbit path shows where the satellite is in the earth's shadow,  

DLR